Weather in Shura

Russia / Mari El Republic     57°07′21″N   48°19′35″E
temp.,
°C
wind,
m/s
gust,
m/s
humid.,
%
clouds,
%
prec.,
mm/h
press.,
hPa
HPBL,
m
25 february, thu
thu2500:00−24ssw229589 0.0 103420
03:00−25s349783 0.0 103244
06:00−22s4896100 0.0 1030212
09:00−20s61093100 0.0 1027278
12:00−17sse71295100 0.2 1023425
15:00−15sse71294100 0.9 1021563
18:00−16sse61195100 0.8 1019582
21:00−16sse61195100 1.4 1018465
26 february, fri
fri2600:00−16sse5995100 0.4 1016395
03:00−16sse4995100 0.7 1016367
06:00−17se499596 0.1 1014304
09:00−15sse599494 0.3 1014352
12:00−12se5892100 0.1 1012419
15:00−11se71192100 0.2 1009446
18:00−11se81394100 0.7 1004424
21:00−9se81594100 4.0 998493
27 february, sat
sat2700:00−8se61295100 4.7 994447
03:00−8ese5795100 7.3 994238
06:00−9ene4695100 1.5 993181
09:00−10ene5894100 1.9 994297
12:00−10ne5894100 0.5 995410
15:00−10nne6994100 1.6 998539
18:00−11nne61192100 0.5 1000564
21:00−13n61192100 0.6 1002399
28 february, sun
sun2800:00−16n5119599 0.0 1003272
03:00−18n5109693 0.1 1006231
06:00−20n5109661 0.0 1007236
09:00−19n599345 0.0 1009308
12:00−16n599049 0.0 1010425
15:00−14n699071 0.0 1012533
18:00−17n4109599 0.0 1014230
21:00−19n499783 0.0 1017167
1 march, mon
mon100:00−21n479814 0.0 101897
03:00−22n47987 0.0 102099
06:00−23n34980 0.0 102267
09:00−20n35960 0.0 1023157
12:00−16nw23870 0.0 1023243
15:00−13w24870 0.0 1022295
18:00−15sw349538 0.0 102063
21:00−13sw599770 0.0 1018244